,,PressureMeas_1m,,PRMeasQMR101_1,,RHStat155_1m_1,,SRMeasQMS101R_1m,,TAStat155_1m_1,,GenWind_1,,GenWind_1,
2017-04-14, 00:00:06,VALID,918.461,VALID,0.0,VALID,94.71,VALID,0.004,VALID,21.143,VALID,142.0,VALID,0.519,
2017-04-14, 00:01:06,VALID,918.462,VALID,0.0,VALID,94.638,VALID,0.003,VALID,21.126,VALID,137.0,VALID,0.181,
2017-04-14, 00:02:06,VALID,918.444,VALID,0.0,VALID,94.721,VALID,0.015,VALID,21.114,VALID,136.0,VALID,0.011,
2017-04-14, 00:03:06,VALID,918.431,VALID,0.0,VALID,94.573,VALID,0.011,VALID,21.084,VALID,135.0,VALID,0.0,
2017-04-14, 00:04:06,VALID,918.407,VALID,0.0,VALID,94.442,VALID,0.006,VALID,21.063,VALID,135.0,VALID,0.0,
2017-04-14, 00:05:06,VALID,918.374,VALID,0.0,VALID,94.475,VALID,0.014,VALID,21.067,VALID,135.0,VALID,0.002,
2017-04-14, 00:06:06,VALID,918.346,VALID,0.0,VALID,94.444,VALID,-0.009,VALID,21.085,VALID,135.0,VALID,0.0,
2017-04-14, 00:07:06,VALID,918.307,VALID,0.0,VALID,94.369,VALID,-0.011,VALID,21.11,VALID,135.0,VALID,0.0,
2017-04-14, 00:08:06,VALID,918.273,VALID,0.0,VALID,94.503,VALID,-0.005,VALID,21.136,VALID,135.0,VALID,0.0,
2017-04-14, 00:09:06,VALID,918.231,VALID,0.0,VALID,94.517,VALID,-0.009,VALID,21.16,VALID,140.0,VALID,0.05,
2017-04-14, 00:10:06,VALID,918.199,VALID,0.0,VALID,94.514,VALID,-0.001,VALID,21.167,VALID,180.0,VALID,0.345,
2017-04-14, 00:11:06,VALID,918.162,VALID,0.0,VALID,94.458,VALID,-0.011,VALID,21.218,VALID,177.0,VALID,0.982,
2017-04-14, 00:12:06,VALID,918.124,VALID,0.0,VALID,94.033,VALID,-0.008,VALID,21.339,VALID,169.0,VALID,0.701,
2017-04-14, 00:13:06,VALID,918.099,VALID,0.0,VALID,93.589,VALID,0.002,VALID,21.419,VALID,168.0,VALID,0.973,
2017-04-14, 00:14:06,VALID,918.077,VALID,0.0,VALID,93.301,VALID,-0.005,VALID,21.502,VALID,159.0,VALID,1.332,
2017-04-14, 00:15:06,VALID,918.05,VALID,0.0,VALID,92.748,VALID,-0.002,VALID,21.599,VALID,155.0,VALID,1.181,
2017-04-14, 00:16:06,VALID,918.024,VALID,0.0,VALID,92.373,VALID,0.011,VALID,21.679,VALID,162.0,VALID,1.123,
2017-04-14, 00:17:06,VALID,918.024,VALID,0.0,VALID,92.003,VALID,-0.016,VALID,21.709,VALID,160.0,VALID,0.9,
2017-04-14, 00:18:06,VALID,918.009,VALID,0.0,VALID,91.944,VALID,-0.008,VALID,21.695,VALID,156.0,VALID,1.135,
2017-04-14, 00:19:06,VALID,917.998,VALID,0.0,VALID,91.9,VALID,0.001,VALID,21.718,VALID,149.0,VALID,1.236,
2017-04-14, 00:20:06,VALID,917.993,VALID,0.0,VALID,91.741,VALID,-0.016,VALID,21.743,VALID,134.0,VALID,0.927,
2017-04-14, 00:21:06,VALID,918.003,VALID,0.0,VALID,91.555,VALID,0.006,VALID,21.659,VALID,89.0,VALID,0.712,
2017-04-14, 00:22:06,VALID,917.982,VALID,0.0,VALID,91.766,VALID,0.028,VALID,21.46,VALID,51.0,VALID,0.736,
2017-04-14, 00:23:06,VALID,917.959,VALID,0.0,VALID,92.793,VALID,0.028,VALID,21.3,VALID,47.0,VALID,0.294,
2017-04-14, 00:24:06,VALID,917.93,VALID,0.0,VALID,93.264,VALID,0.027,VALID,21.231,VALID,47.0,VALID,0.01,
2017-04-14, 00:25:06,VALID,917.913,VALID,0.0,VALID,93.479,VALID,0.022,VALID,21.196,VALID,47.0,VALID,0.0,
2017-04-14, 00:26:06,VALID,917.886,VALID,0.0,VALID,93.8,VALID,0.027,VALID,21.205,VALID,160.0,VALID,0.129,
2017-04-14, 00:27:06,VALID,917.846,VALID,0.0,VALID,93.911,VALID,0.004,VALID,21.217,VALID,207.0,VALID,0.13,
2017-04-14, 00:28:06,VALID,917.821,VALID,0.0,VALID,94.04,VALID,0.005,VALID,21.24,VALID,186.0,VALID,0.153,
2017-04-14, 00:29:06,VALID,917.81,VALID,0.0,VALID,93.934,VALID,0.01,VALID,21.255,VALID,181.0,VALID,0.03,
2017-04-14, 00:30:06,VALID,917.79,VALID,0.0,VALID,93.806,VALID,0.027,VALID,21.255,VALID,180.0,VALID,0.072,
2017-04-14, 00:31:06,VALID,917.776,VALID,0.0,VALID,93.764,VALID,0.024,VALID,21.251,VALID,186.0,VALID,0.055,
2017-04-14, 00:32:06,VALID,917.762,VALID,0.0,VALID,93.821,VALID,0.011,VALID,21.242,VALID,193.0,VALID,0.004,
2017-04-14, 00:33:06,VALID,917.749,VALID,0.0,VALID,93.965,VALID,0.018,VALID,21.213,VALID,188.0,VALID,0.163,
2017-04-14, 00:34:06,VALID,917.741,VALID,0.0,VALID,94.236,VALID,0.03,VALID,21.173,VALID,188.0,VALID,0.039,
2017-04-14, 00:35:06,VALID,917.747,VALID,0.0,VALID,94.265,VALID,0.021,VALID,21.133,VALID,146.0,VALID,0.071,
2017-04-14, 00:36:06,VALID,917.731,VALID,0.0,VALID,94.04,VALID,-0.021,VALID,21.037,VALID,64.0,VALID,0.307,
2017-04-14, 00:37:06,VALID,917.745,VALID,0.0,VALID,94.693,VALID,-0.036,VALID,20.956,VALID,41.0,VALID,1.007,
2017-04-14, 00:38:06,VALID,917.743,VALID,0.0,VALID,95.212,VALID,-0.031,VALID,20.868,VALID,26.0,VALID,0.921,
2017-04-14, 00:39:06,VALID,917.743,VALID,0.0,VALID,95.368,VALID,-0.025,VALID,20.803,VALID,19.0,VALID,0.798,
2017-04-14, 00:40:06,VALID,917.757,VALID,0.0,VALID,95.579,VALID,-0.031,VALID,20.781,VALID,25.0,VALID,0.563,
2017-04-14, 00:41:06,VALID,917.758,VALID,0.0,VALID,95.705,VALID,-0.033,VALID,20.797,VALID,56.0,VALID,0.662,
2017-04-14, 00:42:06,VALID,917.771,VALID,0.0,VALID,95.585,VALID,-0.036,VALID,20.808,VALID,46.0,VALID,1.094,
2017-04-14, 00:43:06,VALID,917.769,VALID,0.0,VALID,95.389,VALID,-0.034,VALID,20.799,VALID,52.0,VALID,1.062,
2017-04-14, 00:44:06,VALID,917.772,VALID,0.0,VALID,95.224,VALID,-0.033,VALID,20.754,VALID,66.0,VALID,1.046,
2017-04-14, 00:45:06,VALID,917.747,VALID,0.0,VALID,95.646,VALID,-0.033,VALID,20.755,VALID,66.0,VALID,1.082,
2017-04-14, 00:46:06,VALID,917.731,VALID,0.0,VALID,95.843,VALID,-0.028,VALID,20.778,VALID,73.0,VALID,0.815,
2017-04-14, 00:47:06,VALID,917.709,VALID,0.0,VALID,95.874,VALID,-0.035,VALID,20.793,VALID,79.0,VALID,0.744,
2017-04-14, 00:48:06,VALID,917.703,VALID,0.0,VALID,95.859,VALID,-0.033,VALID,20.801,VALID,101.0,VALID,0.83,
2017-04-14, 00:49:06,VALID,917.695,VALID,0.0,VALID,95.932,VALID,-0.03,VALID,20.824,VALID,126.0,VALID,0.892,
2017-04-14, 00:50:06,VALID,917.682,VALID,0.0,VALID,95.902,VALID,-0.03,VALID,20.843,VALID,141.0,VALID,1.384,
2017-04-14, 00:51:06,VALID,917.672,VALID,0.0,VALID,96.077,VALID,0.005,VALID,20.802,VALID,159.0,VALID,1.565,
2017-04-14, 00:52:06,VALID,917.668,VALID,0.0,VALID,96.376,VALID,0.014,VALID,20.726,VALID,158.0,VALID,1.481,
2017-04-14, 00:53:06,VALID,917.656,VALID,0.0,VALID,96.73,VALID,0.01,VALID,20.69,VALID,160.0,VALID,1.173,
2017-04-14, 00:54:06,VALID,917.65,VALID,0.0,VALID,96.974,VALID,0.009,VALID,20.679,VALID,159.0,VALID,0.936,
2017-04-14, 00:55:06,VALID,917.655,VALID,0.0,VALID,97.036,VALID,0.016,VALID,20.66,VALID,163.0,VALID,0.947,
2017-04-14, 00:56:06,VALID,917.656,VALID,0.0,VALID,97.145,VALID,0.02,VALID,20.651,VALID,159.0,VALID,1.257,
2017-04-14, 00:57:06,VALID,917.67,VALID,0.0,VALID,97.233,VALID,0.014,VALID,20.658,VALID,153.0,VALID,1.286,
2017-04-14, 00:58:06,VALID,917.682,VALID,0.0,VALID,97.303,VALID,0.004,VALID,20.667,VALID,147.0,VALID,0.907,
2017-04-14, 00:59:06,VALID,917.692,VALID,0.0,VALID,97.273,VALID,0.021,VALID,20.661,VALID,139.0,VALID,0.883,
2017-04-14, 01:00:06,VALID,917.702,VALID,0.0,VALID,97.279,VALID,0.014,VALID,20.654,VALID,126.0,VALID,0.836,
2017-04-14, 01:01:06,VALID,917.714,VALID,0.0,VALID,97.247,VALID,0.012,VALID,20.641,VALID,99.0,VALID,0.673,
2017-04-14, 01:02:06,VALID,917.715,VALID,0.0,VALID,97.013,VALID,0.027,VALID,20.589,VALID,76.0,VALID,0.772,
2017-04-14, 01:03:06,VALID,917.72,VALID,0.0,VALID,97.053,VALID,0.019,VALID,20.587,VALID,75.0,VALID,1.061,
2017-04-14, 01:04:06,VALID,917.707,VALID,0.0,VALID,97.05,VALID,0.003,VALID,20.619,VALID,79.0,VALID,1.286,
2017-04-14, 01:05:06,VALID,917.68,VALID,0.0,VALID,96.973,VALID,0.003,VALID,20.667,VALID,80.0,VALID,1.336,
2017-04-14, 01:06:06,VALID,917.652,VALID,0.0,VALID,96.839,VALID,0.002,VALID,20.721,VALID,82.0,VALID,1.195,
2017-04-14, 01:07:06,VALID,917.625,VALID,0.0,VALID,96.787,VALID,-0.0,VALID,20.783,VALID,93.0,VALID,0.852,
2017-04-14, 01:08:06,VALID,917.58,VALID,0.0,VALID,96.645,VALID,-0.016,VALID,20.829,VALID,122.0,VALID,0.94,
2017-04-14, 01:09:06,VALID,917.553,VALID,0.0,VALID,96.537,VALID,-0.004,VALID,20.9,VALID,137.0,VALID,1.206,
2017-04-14, 01:10:06,VALID,917.538,VALID,0.0,VALID,96.268,VALID,-0.011,VALID,20.977,VALID,141.0,VALID,1.577,
2017-04-14, 01:11:07,VALID,917.526,VALID,0.0,VALID,95.777,VALID,-0.003,VALID,21.07,VALID,140.0,VALID,1.523,
2017-04-14, 01:12:07,VALID,917.523,VALID,0.0,VALID,95.193,VALID,0.011,VALID,21.154,VALID,140.0,VALID,1.488,
2017-04-14, 01:13:07,VALID,917.526,VALID,0.0,VALID,94.68,VALID,0.003,VALID,21.229,VALID,144.0,VALID,1.334,
2017-04-14, 01:14:07,VALID,917.542,VALID,0.0,VALID,94.232,VALID,0.008,VALID,21.263,VALID,139.0,VALID,1.561,
2017-04-14, 01:15:07,VALID,917.545,VALID,0.0,VALID,93.992,VALID,0.012,VALID,21.303,VALID,128.0,VALID,1.779,
2017-04-14, 01:16:07,VALID,917.556,VALID,0.0,VALID,93.719,VALID,-0.001,VALID,21.344,VALID,122.0,VALID,1.754,
2017-04-14, 01:17:07,VALID,917.558,VALID,0.0,VALID,93.35,VALID,-0.01,VALID,21.387,VALID,117.0,VALID,1.752,
2017-04-14, 01:18:07,VALID,917.568,VALID,0.0,VALID,92.853,VALID,-0.0,VALID,21.47,VALID,104.0,VALID,1.388,
2017-04-14, 01:19:07,VALID,917.565,VALID,0.0,VALID,92.515,VALID,0.001,VALID,21.471,VALID,92.0,VALID,1.256,
2017-04-14, 01:20:07,VALID,917.565,VALID,0.0,VALID,92.51,VALID,0.006,VALID,21.442,VALID,89.0,VALID,1.329,
2017-04-14, 01:21:07,VALID,917.572,VALID,0.0,VALID,92.48,VALID,0.009,VALID,21.455,VALID,84.0,VALID,1.44,
2017-04-14, 01:22:07,VALID,917.566,VALID,0.0,VALID,92.439,VALID,0.019,VALID,21.452,VALID,84.0,VALID,1.307,
2017-04-14, 01:23:07,VALID,917.57,VALID,0.0,VALID,92.535,VALID,0.015,VALID,21.421,VALID,86.0,VALID,1.291,
2017-04-14, 01:24:07,VALID,917.57,VALID,0.0,VALID,92.706,VALID,0.003,VALID,21.371,VALID,84.0,VALID,1.366,
2017-04-14, 01:25:07,VALID,917.565,VALID,0.0,VALID,92.894,VALID,0.012,VALID,21.325,VALID,90.0,VALID,1.394,
2017-04-14, 01:26:07,VALID,917.575,VALID,0.0,VALID,92.962,VALID,0.006,VALID,21.327,VALID,91.0,VALID,1.258,
2017-04-14, 01:27:07,VALID,917.578,VALID,0.0,VALID,93.022,VALID,0.003,VALID,21.316,VALID,94.0,VALID,1.217,
2017-04-14, 01:28:07,VALID,917.568,VALID,0.0,VALID,93.102,VALID,-0.001,VALID,21.291,VALID,94.0,VALID,1.188,
2017-04-14, 01:29:07,VALID,917.565,VALID,0.0,VALID,93.186,VALID,0.006,VALID,21.275,VALID,95.0,VALID,1.041,
2017-04-14, 01:30:07,VALID,917.552,VALID,0.0,VALID,93.165,VALID,0.02,VALID,21.253,VALID,94.0,VALID,0.919,
2017-04-14, 01:31:07,VALID,917.539,VALID,0.0,VALID,93.423,VALID,0.01,VALID,21.232,VALID,88.0,VALID,0.936,
2017-04-14, 01:32:07,VALID,917.536,VALID,0.0,VALID,93.494,VALID,0.017,VALID,21.223,VALID,90.0,VALID,0.95,
2017-04-14, 01:33:07,VALID,917.531,VALID,0.0,VALID,93.579,VALID,0.008,VALID,21.214,VALID,99.0,VALID,0.69,
2017-04-14, 01:34:07,VALID,917.529,VALID,0.0,VALID,93.658,VALID,0.014,VALID,21.195,VALID,111.0,VALID,0.845,
2017-04-14, 01:35:07,VALID,917.51,VALID,0.0,VALID,93.918,VALID,0.003,VALID,21.211,VALID,130.0,VALID,0.964,
2017-04-14, 01:36:07,VALID,917.494,VALID,0.0,VALID,93.806,VALID,0.006,VALID,21.271,VALID,121.0,VALID,0.965,
2017-04-14, 01:37:07,VALID,917.47,VALID,0.0,VALID,93.512,VALID,0.011,VALID,21.333,VALID,134.0,VALID,0.558,
2017-04-14, 01:38:07,VALID,917.438,VALID,0.0,VALID,93.448,VALID,-0.004,VALID,21.335,VALID,155.0,VALID,0.352,
2017-04-14, 01:39:07,VALID,917.429,VALID,0.0,VALID,93.698,VALID,-0.003,VALID,21.3,VALID,158.0,VALID,0.214,
2017-04-14, 01:40:07,VALID,917.407,VALID,0.0,VALID,93.905,VALID,0.011,VALID,21.25,VALID,174.0,VALID,0.375,
2017-04-14, 01:41:07,VALID,917.375,VALID,0.0,VALID,94.095,VALID,0.01,VALID,21.203,VALID,164.0,VALID,0.252,
2017-04-14, 01:42:07,VALID,917.354,VALID,0.0,VALID,94.294,VALID,0.002,VALID,21.154,VALID,153.0,VALID,0.146,
2017-04-14, 01:43:07,VALID,917.339,VALID,0.0,VALID,94.45,VALID,0.006,VALID,21.101,VALID,140.0,VALID,0.323,
2017-04-14, 01:44:07,VALID,917.318,VALID,0.0,VALID,94.634,VALID,0.008,VALID,21.046,VALID,140.0,VALID,0.427,
2017-04-14, 01:45:07,VALID,917.299,VALID,0.0,VALID,94.879,VALID,0.002,VALID,21.05,VALID,135.0,VALID,0.629,
2017-04-14, 01:46:07,VALID,917.283,VALID,0.0,VALID,94.713,VALID,0.013,VALID,21.085,VALID,137.0,VALID,0.836,
2017-04-14, 01:47:07,VALID,917.261,VALID,0.0,VALID,94.394,VALID,0.022,VALID,21.153,VALID,137.0,VALID,0.98,
2017-04-14, 01:48:07,VALID,917.26,VALID,0.0,VALID,94.065,VALID,0.009,VALID,21.244,VALID,153.0,VALID,0.833,
2017-04-14, 01:49:07,VALID,917.241,VALID,0.0,VALID,93.726,VALID,-0.001,VALID,21.308,VALID,171.0,VALID,0.587,
2017-04-14, 01:50:07,VALID,917.239,VALID,0.0,VALID,93.454,VALID,0.001,VALID,21.326,VALID,171.0,VALID,0.241,
2017-04-14, 01:51:07,VALID,917.242,VALID,0.0,VALID,93.414,VALID,-0.009,VALID,21.331,VALID,159.0,VALID,0.296,
2017-04-14, 01:52:07,VALID,917.242,VALID,0.0,VALID,93.53,VALID,-0.007,VALID,21.318,VALID,130.0,VALID,0.054,
2017-04-14, 01:53:07,VALID,917.243,VALID,0.0,VALID,93.386,VALID,0.005,VALID,21.302,VALID,130.0,VALID,0.012,
2017-04-14, 01:54:07,VALID,917.247,VALID,0.0,VALID,93.421,VALID,0.005,VALID,21.277,VALID,130.0,VALID,0.037,
2017-04-14, 01:55:07,VALID,917.25,VALID,0.0,VALID,93.541,VALID,0.002,VALID,21.267,VALID,129.0,VALID,0.001,
2017-04-14, 01:56:07,VALID,917.25,VALID,0.0,VALID,93.572,VALID,-0.007,VALID,21.247,VALID,122.0,VALID,0.066,
2017-04-14, 01:57:07,VALID,917.266,VALID,0.0,VALID,93.815,VALID,-0.014,VALID,21.235,VALID,72.0,VALID,0.079,
2017-04-14, 01:58:07,VALID,917.279,VALID,0.0,VALID,93.94,VALID,0.016,VALID,21.24,VALID,65.0,VALID,0.03,
2017-04-14, 01:59:07,VALID,917.28,VALID,0.0,VALID,93.904,VALID,-0.004,VALID,21.254,VALID,64.0,VALID,0.052,
2017-04-14, 02:00:07,VALID,917.28,VALID,0.0,VALID,93.902,VALID,-0.007,VALID,21.279,VALID,83.0,VALID,0.041,
2017-04-14, 02:01:07,VALID,917.27,VALID,0.0,VALID,93.807,VALID,-0.004,VALID,21.305,VALID,84.0,VALID,0.013,
2017-04-14, 02:02:07,VALID,917.261,VALID,0.0,VALID,93.766,VALID,-0.009,VALID,21.325,VALID,84.0,VALID,0.0,
2017-04-14, 02:03:07,VALID,917.239,VALID,0.0,VALID,93.596,VALID,-0.009,VALID,21.338,VALID,84.0,VALID,0.038,
2017-04-14, 02:04:07,VALID,917.205,VALID,0.0,VALID,93.499,VALID,-0.006,VALID,21.349,VALID,84.0,VALID,0.0,
2017-04-14, 02:05:07,VALID,917.175,VALID,0.0,VALID,93.413,VALID,0.005,VALID,21.347,VALID,84.0,VALID,0.0,
2017-04-14, 02:06:07,VALID,917.149,VALID,0.0,VALID,93.464,VALID,-0.001,VALID,21.352,VALID,84.0,VALID,0.0,
2017-04-14, 02:07:07,VALID,917.115,VALID,0.0,VALID,93.402,VALID,-0.004,VALID,21.352,VALID,103.0,VALID,0.025,
2017-04-14, 02:08:07,VALID,917.091,VALID,0.0,VALID,93.401,VALID,-0.003,VALID,21.344,VALID,138.0,VALID,0.032,
2017-04-14, 02:09:07,VALID,917.062,VALID,0.0,VALID,93.256,VALID,0.005,VALID,21.271,VALID,137.0,VALID,0.016,
2017-04-14, 02:10:07,VALID,917.043,VALID,0.0,VALID,93.423,VALID,0.001,VALID,21.189,VALID,137.0,VALID,0.036,
2017-04-14, 02:11:07,VALID,917.036,VALID,0.0,VALID,93.858,VALID,0.005,VALID,21.159,VALID,137.0,VALID,0.005,
2017-04-14, 02:12:07,VALID,917.009,VALID,0.0,VALID,94.095,VALID,0.005,VALID,21.143,VALID,137.0,VALID,0.0,
2017-04-14, 02:13:07,VALID,917.0,VALID,0.0,VALID,94.316,VALID,0.0,VALID,21.143,VALID,137.0,VALID,0.006,
2017-04-14, 02:14:07,VALID,916.976,VALID,0.0,VALID,94.427,VALID,0.003,VALID,21.151,VALID,137.0,VALID,0.063,
2017-04-14, 02:15:07,VALID,916.972,VALID,0.0,VALID,94.383,VALID,-0.01,VALID,21.156,VALID,137.0,VALID,0.152,
2017-04-14, 02:16:07,VALID,916.956,VALID,0.0,VALID,94.053,VALID,-0.006,VALID,21.082,VALID,117.0,VALID,0.392,
2017-04-14, 02:17:07,VALID,916.944,VALID,0.0,VALID,94.56,VALID,-0.01,VALID,21.019,VALID,114.0,VALID,0.426,
2017-04-14, 02:18:07,VALID,916.929,VALID,0.0,VALID,94.819,VALID,-0.003,VALID,20.988,VALID,105.0,VALID,0.563,
2017-04-14, 02:19:07,VALID,916.911,VALID,0.0,VALID,95.08,VALID,-0.001,VALID,20.97,VALID,104.0,VALID,0.5,
2017-04-14, 02:20:07,VALID,916.913,VALID,0.0,VALID,95.265,VALID,-0.008,VALID,20.963,VALID,109.0,VALID,0.548,
2017-04-14, 02:21:07,VALID,916.909,VALID,0.0,VALID,95.374,VALID,0.012,VALID,20.978,VALID,115.0,VALID,0.452,
2017-04-14, 02:22:07,VALID,916.896,VALID,0.0,VALID,95.328,VALID,0.014,VALID,20.976,VALID,112.0,VALID,0.28,
2017-04-14, 02:23:07,VALID,916.897,VALID,0.0,VALID,95.32,VALID,0.029,VALID,20.975,VALID,128.0,VALID,0.582,
2017-04-14, 02:24:07,VALID,916.9,VALID,0.0,VALID,95.396,VALID,0.026,VALID,20.983,VALID,128.0,VALID,0.504,
2017-04-14, 02:25:07,VALID,916.902,VALID,0.0,VALID,95.369,VALID,0.022,VALID,20.986,VALID,123.0,VALID,0.517,
2017-04-14, 02:26:07,VALID,916.905,VALID,0.0,VALID,95.386,VALID,0.017,VALID,21.003,VALID,128.0,VALID,0.371,
2017-04-14, 02:27:07,VALID,916.897,VALID,0.0,VALID,95.216,VALID,0.012,VALID,21.033,VALID,124.0,VALID,0.409,
2017-04-14, 02:28:07,VALID,916.913,VALID,0.0,VALID,95.1,VALID,-0.005,VALID,21.042,VALID,114.0,VALID,0.257,
2017-04-14, 02:29:07,VALID,916.899,VALID,0.0,VALID,95.074,VALID,-0.001,VALID,21.042,VALID,110.0,VALID,0.015,
2017-04-14, 02:30:07,VALID,916.912,VALID,0.0,VALID,95.073,VALID,0.005,VALID,21.056,VALID,121.0,VALID,0.112,
2017-04-14, 02:31:07,VALID,916.909,VALID,0.0,VALID,95.16,VALID,0.002,VALID,21.077,VALID,157.0,VALID,0.363,
2017-04-14, 02:32:07,VALID,916.901,VALID,0.0,VALID,95.215,VALID,0.007,VALID,21.125,VALID,168.0,VALID,0.251,
2017-04-14, 02:33:07,VALID,916.909,VALID,0.0,VALID,95.065,VALID,-0.008,VALID,21.16,VALID,165.0,VALID,0.166,
2017-04-14, 02:34:07,VALID,916.912,VALID,0.0,VALID,94.937,VALID,0.001,VALID,21.188,VALID,165.0,VALID,0.116,
2017-04-14, 02:35:07,VALID,916.918,VALID,0.0,VALID,94.879,VALID,-0.003,VALID,21.221,VALID,166.0,VALID,0.001,
2017-04-14, 02:36:07,VALID,916.932,VALID,0.0,VALID,94.664,VALID,-0.003,VALID,21.225,VALID,166.0,VALID,0.0,
2017-04-14, 02:37:07,VALID,916.949,VALID,0.0,VALID,94.673,VALID,-0.001,VALID,21.2,VALID,166.0,VALID,0.0,
2017-04-14, 02:38:07,VALID,916.958,VALID,0.0,VALID,94.761,VALID,-0.005,VALID,21.17,VALID,166.0,VALID,0.002,
2017-04-14, 02:39:07,VALID,916.977,VALID,0.0,VALID,94.867,VALID,0.013,VALID,21.13,VALID,107.0,VALID,0.221,
2017-04-14, 02:40:07,VALID,916.975,VALID,0.0,VALID,95.055,VALID,0.005,VALID,21.11,VALID,98.0,VALID,0.592,
2017-04-14, 02:41:07,VALID,916.973,VALID,0.0,VALID,95.098,VALID,0.012,VALID,21.119,VALID,81.0,VALID,0.154,
2017-04-14, 02:42:07,VALID,916.975,VALID,0.0,VALID,95.153,VALID,0.01,VALID,21.128,VALID,124.0,VALID,0.663,
2017-04-14, 02:43:07,VALID,916.965,VALID,0.0,VALID,95.392,VALID,-0.001,VALID,21.198,VALID,134.0,VALID,0.859,
2017-04-14, 02:44:07,VALID,916.944,VALID,0.0,VALID,95.375,VALID,0.014,VALID,21.308,VALID,143.0,VALID,1.687,
2017-04-14, 02:45:07,VALID,916.944,VALID,0.0,VALID,94.973,VALID,0.011,VALID,21.42,VALID,141.0,VALID,1.657,
2017-04-14, 02:46:07,VALID,916.932,VALID,0.0,VALID,94.532,VALID,-0.006,VALID,21.483,VALID,135.0,VALID,1.294,
2017-04-14, 02:47:07,VALID,916.926,VALID,0.0,VALID,94.291,VALID,0.008,VALID,21.493,VALID,126.0,VALID,1.647,
2017-04-14, 02:48:07,VALID,916.917,VALID,0.0,VALID,94.193,VALID,-0.0,VALID,21.49,VALID,121.0,VALID,1.756,
2017-04-14, 02:49:07,VALID,916.923,VALID,0.0,VALID,94.125,VALID,0.003,VALID,21.469,VALID,117.0,VALID,1.423,
2017-04-14, 02:50:07,VALID,916.924,VALID,0.0,VALID,94.082,VALID,0.007,VALID,21.447,VALID,117.0,VALID,1.296,
2017-04-14, 02:51:07,VALID,916.917,VALID,0.0,VALID,93.999,VALID,0.01,VALID,21.448,VALID,117.0,VALID,1.138,
2017-04-14, 02:52:07,VALID,916.924,VALID,0.0,VALID,93.834,VALID,-0.002,VALID,21.47,VALID,124.0,VALID,1.339,
2017-04-14, 02:53:07,VALID,916.922,VALID,0.0,VALID,93.515,VALID,0.013,VALID,21.523,VALID,122.0,VALID,1.514,
2017-04-14, 02:54:07,VALID,916.928,VALID,0.0,VALID,93.102,VALID,0.008,VALID,21.591,VALID,124.0,VALID,1.361,
2017-04-14, 02:55:07,VALID,916.917,VALID,0.0,VALID,92.881,VALID,0.011,VALID,21.625,VALID,117.0,VALID,1.371,
2017-04-14, 02:56:07,VALID,916.934,VALID,0.0,VALID,92.617,VALID,0.01,VALID,21.651,VALID,119.0,VALID,1.641,
2017-04-14, 02:57:07,VALID,916.932,VALID,0.0,VALID,92.269,VALID,0.019,VALID,21.705,VALID,114.0,VALID,1.704,
2017-04-14, 02:58:07,VALID,916.943,VALID,0.0,VALID,92.0,VALID,0.022,VALID,21.745,VALID,123.0,VALID,1.652,
2017-04-14, 02:59:07,VALID,916.959,VALID,0.0,VALID,91.782,VALID,0.026,VALID,21.781,VALID,132.0,VALID,1.685,
2017-04-14, 03:00:07,VALID,916.95,VALID,0.0,VALID,91.369,VALID,0.029,VALID,21.85,VALID,133.0,VALID,1.912,
2017-04-14, 03:01:07,VALID,916.958,VALID,0.0,VALID,91.041,VALID,0.016,VALID,21.924,VALID,132.0,VALID,1.634,
2017-04-14, 03:02:07,VALID,916.967,VALID,0.0,VALID,91.082,VALID,0.008,VALID,21.931,VALID,140.0,VALID,2.274,
2017-04-14, 03:03:07,VALID,916.971,VALID,0.0,VALID,91.005,VALID,0.011,VALID,21.985,VALID,137.0,VALID,2.696,
2017-04-14, 03:04:07,VALID,916.971,VALID,0.0,VALID,90.777,VALID,0.026,VALID,22.032,VALID,137.0,VALID,1.852,
2017-04-14, 03:05:07,VALID,916.964,VALID,0.0,VALID,91.014,VALID,0.018,VALID,22.014,VALID,132.0,VALID,1.963,
2017-04-14, 03:06:07,VALID,916.969,VALID,0.0,VALID,91.07,VALID,-0.004,VALID,22.027,VALID,138.0,VALID,2.571,
2017-04-14, 03:07:07,VALID,916.951,VALID,0.0,VALID,91.093,VALID,-0.019,VALID,22.074,VALID,136.0,VALID,2.805,
2017-04-14, 03:08:07,VALID,916.957,VALID,0.0,VALID,90.828,VALID,0.002,VALID,22.104,VALID,127.0,VALID,2.919,
2017-04-14, 03:09:07,VALID,916.942,VALID,0.0,VALID,90.702,VALID,-0.001,VALID,22.111,VALID,120.0,VALID,2.874,
2017-04-14, 03:10:07,VALID,916.946,VALID,0.0,VALID,90.84,VALID,-0.005,VALID,22.097,VALID,131.0,VALID,2.089,
2017-04-14, 03:11:07,VALID,916.953,VALID,0.0,VALID,90.997,VALID,-0.011,VALID,22.081,VALID,151.0,VALID,1.999,
2017-04-14, 03:12:07,VALID,916.967,VALID,0.0,VALID,91.224,VALID,-0.011,VALID,21.971,VALID,148.0,VALID,2.268,
2017-04-14, 03:13:07,VALID,916.972,VALID,0.0,VALID,91.277,VALID,-0.007,VALID,21.918,VALID,138.0,VALID,2.586,
2017-04-14, 03:14:07,VALID,917.012,VALID,0.0,VALID,91.326,VALID,-0.005,VALID,21.94,VALID,132.0,VALID,1.942,
2017-04-14, 03:15:07,VALID,917.013,VALID,0.0,VALID,91.212,VALID,-0.02,VALID,21.952,VALID,151.0,VALID,1.785,
2017-04-14, 03:16:07,VALID,917.033,VALID,0.0,VALID,91.075,VALID,-0.027,VALID,21.957,VALID,138.0,VALID,1.739,
2017-04-14, 03:17:07,VALID,917.047,VALID,0.0,VALID,91.358,VALID,-0.003,VALID,21.914,VALID,120.0,VALID,1.438,
2017-04-14, 03:18:07,VALID,917.056,VALID,0.0,VALID,91.369,VALID,-0.016,VALID,21.874,VALID,128.0,VALID,1.83,
2017-04-14, 03:19:07,VALID,917.064,VALID,0.0,VALID,91.119,VALID,-0.016,VALID,21.896,VALID,117.0,VALID,1.614,
2017-04-14, 03:20:06,VALID,917.066,VALID,0.0,VALID,91.317,VALID,0.001,VALID,21.886,VALID,109.0,VALID,1.183,
2017-04-14, 03:21:06,VALID,917.069,VALID,0.0,VALID,91.326,VALID,0.003,VALID,21.848,VALID,111.0,VALID,1.784,
2017-04-14, 03:22:06,VALID,917.059,VALID,0.0,VALID,91.081,VALID,-0.015,VALID,21.823,VALID,100.0,VALID,1.527,
2017-04-14, 03:23:06,VALID,917.06,VALID,0.0,VALID,90.846,VALID,-0.022,VALID,21.841,VALID,121.0,VALID,1.6,
2017-04-14, 03:24:06,VALID,917.071,VALID,0.0,VALID,90.714,VALID,-0.027,VALID,21.869,VALID,97.0,VALID,1.984,
2017-04-14, 03:25:06,VALID,917.072,VALID,0.0,VALID,90.755,VALID,-0.015,VALID,21.837,VALID,97.0,VALID,2.681,
2017-04-14, 03:26:06,VALID,917.097,VALID,0.0,VALID,91.05,VALID,-0.024,VALID,21.776,VALID,102.0,VALID,2.611,
2017-04-14, 03:27:06,VALID,917.098,VALID,0.0,VALID,90.79,VALID,-0.015,VALID,21.771,VALID,100.0,VALID,2.13,
2017-04-14, 03:28:06,VALID,917.122,VALID,0.0,VALID,90.964,VALID,-0.023,VALID,21.741,VALID,106.0,VALID,1.613,
2017-04-14, 03:29:06,VALID,917.133,VALID,0.0,VALID,91.34,VALID,-0.01,VALID,21.69,VALID,111.0,VALID,2.026,
2017-04-14, 03:30:06,VALID,917.127,VALID,0.0,VALID,90.98,VALID,-0.016,VALID,21.653,VALID,106.0,VALID,3.49,
2017-04-14, 03:31:06,VALID,917.161,VALID,0.0,VALID,89.861,VALID,-0.016,VALID,21.747,VALID,109.0,VALID,3.841,
2017-04-14, 03:32:06,VALID,917.16,VALID,0.0,VALID,89.583,VALID,-0.0,VALID,21.782,VALID,106.0,VALID,3.145,
2017-04-14, 03:33:06,VALID,917.156,VALID,0.0,VALID,89.403,VALID,-0.014,VALID,21.777,VALID,113.0,VALID,3.231,
2017-04-14, 03:34:06,VALID,917.164,VALID,0.0,VALID,88.873,VALID,-0.023,VALID,21.784,VALID,114.0,VALID,3.268,
2017-04-14, 03:35:06,VALID,917.171,VALID,0.0,VALID,89.08,VALID,-0.002,VALID,21.799,VALID,135.0,VALID,2.972,
2017-04-14, 03:36:06,VALID,917.183,VALID,0.0,VALID,88.886,VALID,-0.014,VALID,21.784,VALID,130.0,VALID,2.891,
2017-04-14, 03:37:06,VALID,917.175,VALID,0.0,VALID,88.755,VALID,-0.02,VALID,21.777,VALID,136.0,VALID,2.357,
2017-04-14, 03:38:06,VALID,917.169,VALID,0.0,VALID,88.632,VALID,-0.025,VALID,21.771,VALID,131.0,VALID,2.53,
2017-04-14, 03:39:06,VALID,917.158,VALID,0.0,VALID,88.928,VALID,-0.021,VALID,21.744,VALID,114.0,VALID,2.022,